Location: Bonningues
(50.7927°N, 2.0150°E)
Time: 00:02:14
(UTC+00:00)

Cosmos 1544 - Pass Details

Date: 08 August 2020
Orbit: 471 x 491 km, 82.5° (Epoch: 23 September)

Event Time Altitude Azimuth Distance (km) Brightness Sun altitude
Exits shadow 23:54:24 59° 35° (NE) 571 3.5 -23.4°
Drops below altitude 10° 23:57:30 10° 13° (NNE) 1,687 6.8 -23.4°
Sets 23:59:37 0° 12° (NNE) 2,576 8.1 -23.4°
